Location: Taupo
(38.6830°S, 176.0830°E)
Time: 03:33:07
(UTC+13:00)

Cosmos 968 Rocket - Pass Details

Date: 24 January 2019
Orbit: 742 x 770 km, 74.0° (Epoch: 21 February)

Event Time Altitude Azimuth Distance (km) Brightness Sun altitude
Exits shadow 23:08:49 64° 39° (NE) 845 3.4 -23.6°
Maximum altitude 23:09:19 68° 74° (ENE) 821 3.4 -23.6°
Drops below altitude 10° 23:14:33 10° 156° (SSE) 2,323 6.4 -24.2°
Sets 23:16:58 0° 158° (SSE) 3,261 7.2 -24.5°
